Regional Weather Roundup
Issued by NWS Sterling, VA

Home | Current Version | Previous Version | Graphics & Text | Print | Product List | Glossary On
Versions: 1 2 3 4 5 6 7 8 9 10 11 12 13 14 15 16 17 18 19 20 21 22 23 24 25 26 27 28
000
ASUS41 KLWX 271811
RWRLWX

REGIONAL WEATHER ROUNDUP
NATIONAL WEATHER SERVICE BALTIMORE MD/WASHINGTON DC
200 PM EDT SAT MAY 27 2017

Note: "FAIR" indicates few or no clouds below 12,000 feet
with no significant weather and/or obstructions to visibility.
 TC=TEMPERATURE CELSIUS

 * =Non NWS site. Station does not report precipitation (e.g. rain,
    snow, etc.), thunder, or fog.

DCZ001-MDZ009-015-VAZ040>042-051-053>054-271900-
WASHINGTON METRO

CITY           SKY/WX    TMP DP  RH WIND       PRES   REMARKS
WASHINGTON NAT CLOUDY    72  62  71 NE7       29.90S
DULLES         CLOUDY    68  61  78 N8        29.91R
ANDREWS AFB    PTSUNNY   71  59  64 NE5       29.89S
FT BELVOIR     CLOUDY    71  62  71 CALM      29.89S
QUANTICO       CLOUDY    73  64  73 E6        29.89S
COLLEGE PARK*  CLOUDY    70  59  68 N3        29.90S
LEESBURG*      LGT RAIN  68  63  83 CALM      29.92F
MANASSAS*      LGT RAIN  72  60  66 CALM      29.90F
GAITHERSBURG*  LGT RAIN  65  62  90 CALM      29.93R

$$

MDZ006>007-011-014-271900-
BALTIMORE METRO

CITY           SKY/WX    TMP DP  RH WIND       PRES   REMARKS
BWI AIRPORT    CLOUDY    71  58  63 SW3       29.90S
MD SCIENCE CTR   N/A     73  56  54 MISG      29.90F
MARTIN STATE   LGT RAIN  70  61  73 E3        29.93S
ANNAPOLIS      CLOUDY    71  60  68 SE6       29.90F
FORT MEADE*    CLOUDY    70  57  64 CALM      29.93S

$$

MDZ012-015-019>023-271900-
MARYLAND EASTERN SHORE

CITY           SKY/WX    TMP DP  RH WIND       PRES   REMARKS
OCEAN CITY     CLOUDY    70  57  63 S7        29.92F
SALISBURY      CLOUDY    77  60  55 SE9       29.88F
BAY BRIDGE AP* CLOUDY    72  57  60 NW7       29.91S
CAMBRIDGE*     PTSUNNY   77  59  53 VRB6      29.89S
EASTON*        MOSUNNY   73  59  60 N3        29.93F

$$

MDZ017>025-271900-
SOUTHERN MARYLAND

CITY           SKY/WX    TMP DP  RH WIND       PRES   REMARKS
PATUXENT RIVER PTSUNNY   72  62  71 SE9       29.88F
ST INIGOES     NOT AVBL
LEONARDTOWN*   MOSUNNY   73  59  60 NE5       29.90S

$$

MDZ003>005-271900-
NORTH CENTRAL MARYLAND

CITY           SKY/WX    TMP DP  RH WIND       PRES   REMARKS
FREDERICK*     CLOUDY    72  63  73 S6        29.94S
HAGERSTOWN APT CLOUDY    63  60  90 CALM      29.92S
WESTMINSTER*   RAIN      63  61  94 CALM      29.93F

$$

MDZ501>502-271900-
WESTERN MARYLAND

CITY           SKY/WX    TMP DP  RH WIND       PRES   REMARKS
OAKLAND*         N/A     59  59 100 W5        29.95S FOG
CUMBERLAND*    CLOUDY    63  59  88 CALM      29.96S

$$

VAZ025>031-271900-
SHENANDOAH VALLEY

CITY           SKY/WX    TMP DP  RH WIND       PRES   REMARKS
WINCHESTER*    CLOUDY    63  59  88 CALM      29.91S
FRONT ROYAL*   CLOUDY    66  63  88 CALM      29.90R
LURAY*         CLOUDY    73  61  64 CALM      29.89S
NEW MARKET*    PTSUNNY   76  61  60 CALM      29.88S
STAUNTON*      MOSUNNY   81  64  57 W8        29.90F
WAYNESBORO*    PTSUNNY   79  66  64 SW5       29.91F

$$

WVZ021-048>050-054>055-271900-
EASTERN WEST VIRGINIA PANHANDLE

CITY           SKY/WX    TMP DP  RH WIND       PRES   REMARKS
MARTINSBURG    CLOUDY    66  60  81 SE3       29.90F
PETERSBURG*    CLOUDY    69  63  82 CALM      29.92S

$$

VAZ036>039-050-271900-
CENTRAL FOOTHILLS

CITY           SKY/WX    TMP DP  RH WIND       PRES   REMARKS
CHARLOTTESVILL MOSUNNY   81  65  58 VRB6      29.88F
CULPEPER*      PTSUNNY   76  62  60 S3        29.90S
ORANGE*        PTSUNNY   79  64  61 CALM      29.88F
GORDONSVILLE*  CLOUDY    80  65  61 SE6       29.88S
WARRENTON*     CLOUDY    76  59  55 CALM      29.89S

$$

VAZ055>057-271900-
NORTH AND CENTRAL PIEDMONT

CITY           SKY/WX    TMP DP  RH WIND       PRES   REMARKS
FREDERICKSBRG* CLOUDY    78  63  60 CALM      29.87S
STAFFORD*      CLOUDY    73  64  72 CALM      29.93R

$$

NCZ024-NYZ072-PAZ021-071-VAZ022-071-271900-
OTHER REGIONAL OBSERVATIONS

CITY           SKY/WX    TMP DP  RH WIND       PRES   REMARKS
NEW YORK CITY  CLOUDY    69  56  62 SW5       29.89S
PHILADELPHIA   CLOUDY    72  50  45 W10       29.90R
PITTSBURGH     CLOUDY    65  61  87 S3        29.91S
ROANOKE        PTSUNNY   83  63  50 W12       29.91F
RICHMOND       MOSUNNY   83  63  50 S8        29.87F
RALEIGH        MOSUNNY   86  67  52 SW10      29.92F

$$

ANZ530>537-271900-
MARINE OBSERVATIONS

STATION/POSITION TIME  TEMP    WIND        PRES
                       AIR SEA DIR/SP/G
                 (UTC) (F)     (DEG/KT/KT) (MB)
THOMAS PT LIGHT  1800   67 65   20/  6/  7   N/A
BALT KEY BRIDGE  1748   67     130/  7/  9 1012.7F
COVE POINT       1748   69     160/  8/ 10 1012.8F
LEWISETTA        1748   78 70  220/  3/  4 1011.4F
SOLOMONS ISLAND  1748   70 68  130/ 11/ 12   N/A
PINEY POINT      1748          140/ 10/ 11   N/A

$$





USA.gov is the U.S. government's official web portal to all federal, state and local government web resources and services.